Ord, NE

4:28 PM CST on February 17, 2018 (GMT -0600)
Sharp

Weather History for KODX - February, 2013

Change the Weather History Date:

Thursday, February 21, 2013

  Actual Average Record
Temperature  
Mean Temperature 18 °F 29 °F  
Max Temperature 19 °F 41 °F 78 °F (2017)
Min Temperature 16 °F 17 °F 6 °F (2008)
Degree Days  
Heating Degree Days 47 36  
Month to date heating degree days 708 798  
Since 1 July heating degree days 4662 4774  
Cooling Degree Days 0 0  
Month to date cooling degree days 0 0  
Year to date cooling degree days 0 0  
Moisture  
Dew Point 13 °F    
Average Humidity 86    
Maximum Humidity 92    
Minimum Humidity 80    
Precipitation  
Precipitation 0.13 in 0.01 in 0.80 in (1925)
Month to date precipitation 0.84 0.35  
Year to date precipitation 0.98 0.72  
Sea Level Pressure  
Sea Level Pressure 30.00 in    
Wind  
Wind Speed 12 mph (NE)    
Max Wind Speed 18 mph    
Max Gust Speed 24 mph    
Visibility 2 miles    
Events Fog , Snow    
T = Trace of Precipitation, MM = Missing Value Source: NWS Daily Summary

Daily Weather History Graph

Daily Weather History Graph

Search for Another Location

Airport or City:

Trip Planner

Search our weather history database for the weather conditions in past years. The results will help you decide how hot, cold, wet, or windy it might be!

Date:

Astronomy

Feb. 21, 2013 Rise Set
Actual Time 7:22 AM CST 6:17 PM CST
Civil Twilight 6:54 AM CST 6:45 PM CST
Nautical Twilight 6:21 AM CST 7:17 PM CST
Astronomical Twilight 5:49 AM CST 7:49 PM CST
Moon 2:31 PM CST (2/21) 4:30 AM CST (2/21)
Length of Visible Light 11h 51m
Length of Day
10h 54m
Waxing Gibbous, 84% of the Moon is Illuminated
Feb 21
Waxing Gibbous
Feb 25
Full
Mar 4
Last Quarter
Mar 11
New
Mar 19
First Quarter

Hourly Weather History & Observations

Time (CST) Temp. Windchill Dew Point Humidity Pressure Visibility Wind Dir Wind Speed Gust Speed Precip Events Conditions
12:05 AM 19.4 °F 6.0 °F 15.8 °F 86% 30.09 in 1.8 mi ESE 13.8 mph - 0.00 in Snow Light Snow
12:15 AM 19.4 °F 6.6 °F 15.8 °F 86% 30.09 in 1.5 mi ESE 12.7 mph - 0.00 in Snow Light Snow
12:24 AM 19.4 °F 7.9 °F 15.8 °F 86% 30.09 in 1.0 mi ESE 10.4 mph - 0.00 in Snow Light Snow
12:40 AM 17.6 °F 3.2 °F 15.8 °F 93% 30.09 in 1.2 mi ESE 15.0 mph - 0.00 in Snow Light Snow
12:51 AM 17.6 °F 1.7 °F 15.8 °F 93% 30.08 in 1.0 mi ESE 18.4 mph - 0.01 in Snow Light Snow
12:53 AM 18.0 °F 3.1 °F 15.1 °F 88% 30.18 in 1.2 mi ESE 16.1 mph - 0.01 in Snow Light Snow
1:53 AM 18.0 °F 6.9 °F 15.1 °F 88% 30.17 in 1.2 mi ESE 9.2 mph - 0.00 in Snow Light Snow
2:10 AM 17.6 °F 5.0 °F 15.8 °F 93% 30.05 in 1.0 mi ESE 11.5 mph - 0.00 in Snow Light Snow
2:19 AM 17.6 °F 5.7 °F 15.8 °F 93% 30.06 in 1.2 mi ESE 10.4 mph - 0.00 in Snow Light Snow
2:53 AM 18.0 °F 6.1 °F 14.0 °F 84% 30.16 in 2.0 mi ESE 10.4 mph - 0.00 in Snow Light Snow
3:03 AM 17.6 °F 6.4 °F 14.0 °F 86% 30.03 in 6.0 mi ESE 9.2 mph - 0.00 in Snow Light Snow
3:11 AM 17.6 °F 6.4 °F 15.8 °F 93% 30.00 in 5.0 mi ENE 9.2 mph - 0.00 in Snow Light Snow
3:53 AM 18.0 °F 6.1 °F 14.0 °F 84% 30.12 in 6.0 mi East 10.4 mph - 0.00 in Snow Light Snow
4:12 AM 17.6 °F 5.7 °F 12.2 °F 79% 30.01 in 2.0 mi East 10.4 mph - 0.01 in Snow Light Snow
4:32 AM 17.6 °F 5.7 °F 12.2 °F 79% 29.99 in 5.0 mi East 10.4 mph - 0.01 in Snow Light Snow
4:53 AM 18.0 °F 5.4 °F 12.9 °F 81% 30.10 in 9.0 mi East 11.5 mph - 0.01 in   Overcast
5:53 AM 18.0 °F 6.1 °F 12.0 °F 78% 30.12 in 7.0 mi East 10.4 mph - 0.00 in Snow Light Snow
6:10 AM 17.6 °F 5.0 °F 12.2 °F 79% 30.01 in 2.0 mi East 11.5 mph - 0.00 in Snow Light Snow
6:18 AM 17.6 °F 4.3 °F 10.4 °F 73% 30.01 in 1.2 mi East 12.7 mph - 0.00 in Snow Light Snow
6:32 AM 15.8 °F 2.7 °F 12.2 °F 86% 30.01 in 1.0 mi East 11.5 mph - 0.00 in Snow Light Snow
6:43 AM 15.8 °F 2.7 °F 12.2 °F 86% 30.01 in 1.2 mi East 11.5 mph - 0.00 in Snow Light Snow
6:53 AM 16.0 °F 2.9 °F 12.0 °F 84% 30.12 in 1.2 mi ENE 11.5 mph - 0.00 in Snow Light Snow
7:15 AM 15.8 °F 3.4 °F 12.2 °F 86% 30.01 in 3.0 mi East 10.4 mph - 0.00 in Snow Light Snow
7:24 AM 15.8 °F 2.7 °F 10.4 °F 79% 30.02 in 8.0 mi ENE 11.5 mph - 0.00 in Snow Light Snow
7:53 AM 16.0 °F 5.3 °F 10.0 °F 77% 30.14 in 4.0 mi ENE 8.1 mph - 0.00 in Snow Light Snow
8:37 AM 17.6 °F 6.4 °F 10.4 °F 73% 30.03 in 1.8 mi East 9.2 mph - 0.00 in Snow Light Snow
8:42 AM 17.6 °F 6.4 °F 10.4 °F 73% 30.03 in 0.8 mi East 9.2 mph - 0.00 in Snow Light Snow
8:53 AM 16.0 °F 3.6 °F 12.0 °F 84% 30.13 in 0.2 mi ENE 10.4 mph - 0.01 in Fog , Snow Snow
9:01 AM 15.8 °F 4.2 °F 12.2 °F 86% 30.02 in 0.2 mi ENE 9.2 mph - 0.00 in Fog , Snow Snow
9:09 AM 15.8 °F 4.2 °F 12.2 °F 86% 30.03 in 0.2 mi ENE 9.2 mph - 0.01 in Fog , Snow Snow
9:17 AM 15.8 °F 4.2 °F 12.2 °F 86% 30.03 in 0.5 mi ENE 9.2 mph - 0.01 in Fog , Snow Snow
9:25 AM 15.8 °F 4.2 °F 12.2 °F 86% 30.03 in 0.5 mi ENE 9.2 mph - 0.01 in Fog , Snow Snow
9:32 AM 15.8 °F 3.4 °F 12.2 °F 86% 30.02 in 0.8 mi ENE 10.4 mph - 0.01 in Snow Light Snow
9:53 AM 16.0 °F 6.3 °F 12.9 °F 88% 30.14 in 0.5 mi East 6.9 mph - 0.02 in Fog , Snow Snow
10:15 AM 17.6 °F 7.3 °F 12.2 °F 79% 30.02 in 0.5 mi ENE 8.1 mph - 0.00 in Fog , Snow Snow
10:53 AM 17.1 °F 4.3 °F 12.9 °F 84% 30.12 in 0.2 mi ENE 11.5 mph - 0.02 in Fog , Snow Snow
11:08 AM 17.6 °F 7.3 °F 12.2 °F 79% 30.00 in 0.5 mi ENE 8.1 mph - 0.00 in Fog , Snow Snow
11:31 AM 17.6 °F 5.0 °F 12.2 °F 79% 29.99 in 0.8 mi NE 11.5 mph - 0.01 in Snow Light Snow
11:41 AM 17.6 °F 5.7 °F 12.2 °F 79% 29.98 in 0.8 mi NE 10.4 mph - 0.01 in Snow Light Snow
11:53 AM 17.6 °F 3.7 °F 12.2 °F 79% 29.97 in 0.8 mi NE 13.8 mph - N/A Snow Light Snow
12:26 PM 17.6 °F 3.7 °F 12.2 °F 79% 29.95 in 0.5 mi NE 13.8 mph - 0.00 in Snow Snow
12:41 PM 17.6 °F 4.3 °F 12.2 °F 79% 29.95 in 0.8 mi NNE 12.7 mph - 0.00 in Snow Light Snow
12:53 PM 18.0 °F 4.8 °F 12.9 °F 81% 30.05 in 0.8 mi NE 12.7 mph - 0.00 in Snow Light Snow
1:21 PM 17.6 °F 4.3 °F 14.0 °F 86% 29.93 in 0.2 mi NE 12.7 mph - 0.01 in Fog , Snow Snow
1:30 PM 17.6 °F 4.3 °F 14.0 °F 86% 29.93 in 0.2 mi NE 12.7 mph - 0.01 in Fog , Snow Snow
1:53 PM 18.0 °F 4.2 °F 14.0 °F 84% 30.02 in 0.2 mi NE 13.8 mph - 0.01 in Fog , Snow Snow
2:09 PM 17.6 °F 3.7 °F 14.0 °F 86% 29.91 in 0.2 mi NE 13.8 mph - 0.01 in Fog , Snow Snow
2:18 PM 17.6 °F 4.3 °F 15.8 °F 93% 29.90 in 0.2 mi NE 12.7 mph - 0.01 in Fog , Snow Snow
2:53 PM 18.0 °F 4.2 °F 14.0 °F 84% 29.99 in 0.2 mi NNE 13.8 mph 23.0 mph 0.02 in Fog , Snow Snow
3:04 PM 17.6 °F 5.0 °F 14.0 °F 86% 29.89 in 0.2 mi NNE 11.5 mph 23.0 mph 0.00 in Fog , Snow Snow
3:18 PM 17.6 °F 3.7 °F 14.0 °F 86% 29.90 in 0.2 mi NE 13.8 mph - 0.00 in Fog , Snow Snow
3:53 PM 18.0 °F 4.2 °F 14.0 °F 84% 30.01 in 0.5 mi NE 13.8 mph - 0.01 in Fog , Snow Snow
4:08 PM 17.6 °F 4.3 °F 14.0 °F 86% 29.90 in 0.2 mi NNE 12.7 mph - 0.00 in Fog , Snow Snow
4:29 PM 17.6 °F 3.7 °F 14.0 °F 86% 29.89 in 0.5 mi NNE 13.8 mph - N/A Fog , Snow Snow
4:53 PM 18.0 °F 3.6 °F 14.0 °F 84% 29.99 in 0.5 mi NNE 15.0 mph 21.9 mph 0.01 in Fog , Snow Snow
5:16 PM 17.6 °F 3.7 °F 14.0 °F 86% 29.89 in 0.5 mi NNE 13.8 mph - 0.00 in Fog , Snow Snow
5:23 PM 17.6 °F 3.7 °F 14.0 °F 86% 29.88 in 0.8 mi NNE 13.8 mph 24.2 mph 0.00 in Snow Light Snow
5:53 PM 18.0 °F 4.8 °F 14.0 °F 84% 30.00 in 0.8 mi NNE 12.7 mph - 0.00 in Snow Light Snow
6:04 PM 17.6 °F 4.3 °F 14.0 °F 86% 29.90 in 0.2 mi NNE 12.7 mph - 0.00 in Fog , Snow Snow
6:18 PM 17.6 °F 3.7 °F 14.0 °F 86% 29.90 in 0.2 mi North 13.8 mph - 0.00 in Fog , Snow Snow
6:53 PM 17.1 °F 5.8 °F 14.0 °F 88% 30.01 in 0.8 mi North 9.2 mph - 0.00 in Snow Light Snow
6:58 PM 17.6 °F 5.7 °F 14.0 °F 86% 29.91 in 1.0 mi North 10.4 mph - 0.00 in Snow Light Snow
7:09 PM 17.6 °F 6.4 °F 14.0 °F 86% 29.91 in 0.8 mi North 9.2 mph - 0.01 in Snow Light Snow
7:19 PM 17.6 °F 6.4 °F 14.0 °F 86% 29.91 in 1.0 mi North 9.2 mph - 0.01 in Snow Light Snow
7:24 PM 17.6 °F 5.7 °F 14.0 °F 86% 29.91 in 1.2 mi North 10.4 mph - 0.01 in Snow Light Snow
7:35 PM 17.6 °F 5.7 °F 14.0 °F 86% 29.91 in 1.8 mi North 10.4 mph - 0.01 in Snow Light Snow
7:53 PM 17.1 °F 5.0 °F 14.0 °F 88% 30.02 in 1.8 mi North 10.4 mph - 0.01 in Snow Light Snow
8:32 PM 17.6 °F 5.0 °F 14.0 °F 86% 29.91 in 1.0 mi North 11.5 mph - 0.00 in Snow Light Snow
8:50 PM 17.6 °F 4.3 °F 14.0 °F 86% 29.91 in 1.2 mi North 12.7 mph - 0.00 in Snow Light Snow
8:53 PM 17.1 °F 3.6 °F 14.0 °F 88% 30.02 in 1.0 mi North 12.7 mph - 0.00 in Snow Light Snow
8:58 PM 17.6 °F 3.7 °F 14.0 °F 86% 29.91 in 0.8 mi North 13.8 mph - 0.00 in Snow Light Snow
9:07 PM 17.6 °F 4.3 °F 14.0 °F 86% 29.91 in 1.0 mi North 12.7 mph - 0.00 in Snow Light Snow
9:46 PM 17.6 °F 5.0 °F 14.0 °F 86% 29.91 in 1.0 mi North 11.5 mph - 0.00 in Snow Light Snow
9:53 PM 17.1 °F 3.6 °F 14.0 °F 88% 30.01 in 1.2 mi North 12.7 mph - 0.00 in Snow Light Snow
10:41 PM 17.6 °F 3.2 °F 14.0 °F 86% 29.90 in 2.0 mi North 15.0 mph - 0.00 in Snow Light Snow
10:53 PM 17.1 °F 2.5 °F 12.9 °F 84% 30.01 in 2.0 mi North 15.0 mph - 0.00 in Snow Light Snow
11:05 PM 17.6 °F 3.7 °F 12.2 °F 79% 29.90 in 3.0 mi North 13.8 mph - 0.00 in Snow Light Snow
11:27 PM 17.6 °F 3.7 °F 12.2 °F 79% 29.90 in 2.5 mi North 13.8 mph - 0.00 in Snow Light Snow
11:53 PM 17.1 °F 4.3 °F 12.9 °F 84% 30.01 in 2.5 mi North 11.5 mph - 0.00 in Snow Light Snow